Preview of NWS' New Version of Forecast
This preview is not operational and should not be used for support decisions.
Latest weather observations around

Williamsburg-Whitley County Airport (KBYL)

Using English Units (Switch to International System of Units)
Date/ Time (EST) Wind (mph) Vis. (mi) Weather Sky Cond. Temp (°F) Rel. Humidity Wind Chill (°F) Heat Index (°F) Pressure Precip. (in)
Air Dwpt 6 hour Altimeter (inHg) Sea level (inHg) 1 hr 3 hr 6 hr
Max Min
Feb 25 20:15 Calm 10 Clear   48 46     93%     30.14        
Feb 25 19:55 Calm 10 Clear   48 45     87%     30.15        
Feb 25 19:35 Calm 10 Clear   48 45     87%     30.15        
Feb 25 19:15 Calm 10 Clear   48 45     87%     30.13        
Feb 25 18:55 Calm 10 Clear   48 45     87%     30.14        
Feb 25 18:35 NNW 3 10 Clear   48 45     87% 47   30.13        
Feb 25 18:15 Calm 10 Clear   50 45     82%     30.12        
Feb 25 17:55 NNW 3 10 Clear   50 45     82% 49   30.12        
Feb 25 17:35 Calm 10 Clear   50 43     76%     30.1        
Feb 25 17:15 WNW 5 10 Clear   50 45     82% 48   30.1        
Feb 25 16:55 WNW 3 10 Clear   52 45     76%     30.08        
Feb 25 16:35 WNW 3 10 Clear   52 45     76%     30.07        
Feb 25 16:15 NW 3 10 Clear   52 43     71%     30.06        
Feb 25 15:55 NNW 3 10 Clear   52 45     76%     30.07        
Feb 25 15:35 NW 3 10 Clear   54 45     71%     30.07        
Feb 25 15:15 WNW 6 10 Clear   54 45     71%     30.06        
Feb 25 14:55 NW 3 10 Clear   52 45     76%     30.05        
Feb 25 14:35 W 3 10 Clear   54 46     77%     30.07        
Feb 25 14:15 WNW 5 10 Clear   54 45     71%     30.07        
Feb 25 13:55 Calm 10 Clear   54 43     67%     30.09        
Feb 25 13:35 Calm 10 Clear   54 41     62%     30.07        
Feb 25 13:15 W 5 10 Clear   52 45     76%     30.08        
Feb 25 12:55 Calm 10 Clear   54 45     71%     30.08        
Feb 25 12:35 Calm 10 Clear   52 45     76%     30.09        
Feb 25 12:15 Calm 10 Clear   52 45     76%     30.11        
Feb 25 11:55 W 3 10 Clear   52 45     76%     30.12        
Feb 25 11:35 Calm 10 Clear   52 43     71%     30.09        
Feb 25 11:15 W 3 10 Clear   54 46     77%     30.09        
Feb 25 10:55 WSW 3 10 Clear   54 48     82%     30.08        
Feb 25 10:35 WSW 6 10 Clear   54 54     100%     30.08        
Feb 25 10:15 Calm 10 Clear   54 54     100%     30.06        
Feb 25 09:55 Calm 10 Clear   54 54     100%     30.06        
Feb 25 09:35 SW 5 10 Clear   54 54     100%     30.07        
Feb 25 09:15 SW 5 10 Clear   54 54     100%     30.06        
Feb 25 08:55 SSW 6 10 Clear   54 54     100%     30.06        
Feb 25 08:35 SW 5 10 Clear   54 54     100%     30.05        
Feb 25 08:15 SW 6 10 Clear   54 54     100%     30.03        
Feb 25 07:55 SSW 5 10 Clear   54 54     100%     30.02        
Feb 25 07:35 WSW 5 10 Clear   54 54     100%     30.01        
Feb 25 07:15 WSW 3 10 Clear   54 54     100%     29.99        
Feb 25 06:55 WSW 5 10 Clear   54 54     100%     29.96        
Feb 25 06:35 WSW 7 10 Clear   54 54     100%     29.96        
Feb 25 06:15 S 8 10 Clear   54 54     100%     29.95        
Feb 25 05:55 SSE 12 6 Clear   54 54     100%     29.93        
Feb 25 05:35 SSW 9 7 Clear   54 54     100%     29.95        
Feb 25 05:15 Calm 5 Clear   54 54     100%     29.97        
Feb 25 04:55 SSW 6 5 Clear   54 54     100%     29.97        
Feb 25 04:35 SW 3 5 Clear   54 54     100%     29.96        
Feb 25 04:15 Calm 4 Clear   54 54     100%     29.95        
Feb 25 03:55 WNW 3 3 Clear   54 54     100%     29.92        
Feb 25 03:35 SSW 7 2.5 Clear   54 54     100%     29.93        
Feb 25 03:15 SW 3 3 Clear   54 54     100%     29.93        
Feb 25 02:55 W 7 3 Clear   55 55     100%     29.93        
Feb 25 02:35 W 9 2 Clear   57 57     100%     29.93        
Feb 25 02:15 W 17 2.5 Clear   63 61     94%     29.92        
Feb 25 01:55 WSW 12 7 Clear   66 59     78%     29.89        
Feb 25 01:35 SSW 18 10 Clear   68 59     73%     29.89        
Feb 25 01:15 SSW 21 10 Clear and Windy   68 57     68%     29.88        
Feb 25 00:55 SW 20 10 Clear   70 57     64%     29.87        
Feb 25 00:35 SSW 17 10 Clear   70 57     64%     29.88        
Feb 25 00:15 SSW 14 10 Clear   68 57     68%     29.87        
Feb 24 23:55 SSW 13 10 Clear   68 57     68%     29.87        
Feb 24 23:35 SSW 9 10 Clear   66 59     78%     29.87        
Feb 24 23:15 S 14 10 Clear   66 59     78%     29.88        
Feb 24 22:55 S 15 10 Clear   64 59     83%     29.89        
Feb 24 22:35 S 13 10 Clear   64 61     88%     29.9        
Feb 24 22:15 S 14 10 Clear   63 61     94%     29.9        
Feb 24 21:55 SSE 9 10 Clear   63 63     100%     29.92        
Feb 24 21:35 SSW 6 10 Clear   63 63     100%     29.95        
Feb 24 21:15 SW 7 8 Clear   63 63     100%     29.96        
Feb 24 20:55 SW 10 4 Clear   64 61     88%     29.95        
Feb 24 20:35 SSW 12 10 Clear   66 57     73%     29.93        
Feb 24 20:15 SSE 7 10 Clear   66 59     78%     29.92        
Feb 24 19:55 SSE 7 10 Clear   66 59     78%     29.93        
Feb 24 19:35 SE 6 10 Clear   64 59     83%     29.93        
Feb 24 19:15 SSE 6 10 Clear   66 59     78%     29.94        
Feb 24 18:55 SSE 6 10 Clear   64 59     83%     29.94        
Feb 24 18:35 SSE 7 10 Clear   66 61     83%     29.95        
Feb 24 18:15 SSE 6 10 Clear   66 63     88%     29.96        
Feb 24 17:55 SSE 6 10 Clear   66 63     88%     29.96        
Feb 24 17:35 SSE 6 10 Clear   66 63     88%     29.96        
Feb 24 17:15 SE 7 10 Clear   66 63     88%     29.96        
Feb 24 16:55 SSW 8 10 Clear   68 61     78%     29.97        
Feb 24 16:35 S 6 10 Clear   66 63     88%     29.98        
Feb 24 16:15 S 7 10 Clear   66 63     88%     29.98        
Feb 24 15:55 SSW 5 10 Clear   66 63     88%     29.98        
Feb 24 15:35 SSW 5 10 Clear   66 63     88%     29.98        
Feb 24 15:15 S 6 10 Clear   66 66     100%     29.99        
Feb 24 14:55 S 7 10 Clear   66 66     100%     30        
Feb 24 14:35 SSW 3 9 Clear   64 64     100%     30.01        
Feb 24 14:15 SW 3 10 Clear   64 64     100%     30.01        
Feb 24 13:55 SW 3 5 Clear   64 64     100%     30.03        
Feb 24 13:35 SW 9 4 Clear   64 64     100%     30.04        
Feb 24 13:15 SW 5 8 Clear   66 64     94%     30.05        
Feb 24 12:55 SW 8 7 Clear   66 63     88%     30.06        
Feb 24 12:35 SW 15 10 Clear   66 63     88%     30.06        
Feb 24 12:15 SW 9 10 Clear   66 63     88%     30.07        
Feb 24 11:55 SW 9 10 Clear   64 63     94%     30.07        
Feb 24 11:35 SW 6 3 Clear   64 64     100%     30.08        
Feb 24 11:15 Calm 8 Clear   64 64     100%     30.08        
Feb 24 10:55 SW 7 5 Clear   64 64     100%     30.09        
Feb 24 10:35 SW 7 8 Clear   64 64     100%     30.09        
Feb 24 10:15 SW 10 1.75 Clear   64 63     94%     30.1        
Feb 24 09:55 SSW 7 10 Clear   68 61     78%     30.09        
Feb 24 09:35 SSW 12 10 Clear   66 63     88%     30.08        
Feb 24 09:15 SW 10 10 Clear   64 63     94%     30.08        
Feb 24 08:55 Calm 10 Clear   63 63     100%     30.09        
Feb 24 08:35 SSE 7 10 Clear   61 61     100%     30.09        
Feb 24 08:15 SE 7 9 Clear   59 59     100%     30.09        
Feb 24 07:55 SE 3 8 Clear   59 59     100%     30.1        
Feb 24 07:35 Calm 4 Clear   59 59     100%     30.1        
Feb 24 07:15 Calm 0.5 Clear   59 59     100%     30.1        
Feb 24 06:55 Calm 3 Clear   59 59     100%     30.11        
Feb 24 06:35 Calm 0.5 Clear   59 59     100%     30.12        
Feb 24 06:15 Calm 1 Clear   59 59     100%     30.11        
Feb 24 05:55 NNE 3 5 Clear   59 59     100%     30.11        
Feb 24 05:35 S 3 4 Clear   59 59     100%     30.12        
Feb 24 05:15 SW 3 3 Clear   59 59     100%     30.13        
Feb 24 04:55 Calm 3 Clear   59 59     100%     30.12        
Feb 24 04:35 Calm 10 Clear   61 57     88%     30.11        
Feb 24 04:15 Calm 10 Clear   63 57     83%     30.12        
Feb 24 03:55 Calm 10 Clear   63 57     83%     30.12        
Feb 24 03:35 Calm 10 Clear   63 57     83%     30.12        
Feb 24 03:15 SE 3 10 Clear   64 57     77%     30.13        
Feb 24 02:55 SE 6 10 Clear   64 57     77%     30.14        
Feb 24 02:35 SSE 6 10 Clear   64 57     77%     30.15        
Feb 24 02:15 SSE 5 10 Clear   64 57     77%     30.16        
Feb 24 01:55 SSE 6 10 Clear   64 57     77%     30.17        
Feb 24 01:35 SE 6 10 Clear   64 57     77%     30.17        
Feb 24 01:15 SE 7 10 Clear   63 57     83%     30.18        
Feb 24 00:55 SE 5 10 Clear   63 57     83%     30.19        
Feb 24 00:35 Calm 10 Clear   63 57     83%     30.19        
Feb 24 00:15 SSE 5 10 Clear   63 57     83%     30.19        
Feb 23 23:55 Calm 10 Clear   61 59     94%     30.19        
Feb 23 23:35 SSE 3 10 Clear   63 59     88%     30.19        
Feb 23 23:15 SSE 5 10 Clear   63 59     88%     30.2        
Feb 23 22:55 SE 6 10 Clear   63 59     88%     30.21        
Feb 23 22:35 SSE 3 10 Clear   63 59     88%     30.21        
Feb 23 22:15 Calm 10 Clear   63 63     100%     30.22        
Feb 23 21:55 Calm 10 Clear   63 63     100%     30.22        
Feb 23 21:35 Calm 10 Clear   64 63     94%     30.22        
Feb 23 21:15 Calm 10 Clear   64 63     94%     30.22        
Feb 23 20:55 Calm 10 Clear   64 61     88%     30.23        
Feb 23 20:35 Calm 10 Clear   64 63     94%     30.22        
Feb 23 20:15 Calm 10 Clear   64 61     88%     30.22        
Feb 23 19:55 Calm 10 Clear   66 59     78%     30.23        
Feb 23 19:35 Calm 10 Clear   68 59     73%     30.23        
Feb 23 19:15 N 3 10 Clear   68 59     73%     30.24        
Feb 23 18:55 SSE 3 10 Clear   68 59     73%     30.24        
Feb 23 18:35 Calm 8 Clear   70 57     64%     30.25        
Feb 23 18:15 SSW 6 10 Clear   72 57     60%   71 30.24        
Feb 23 17:55 S 6 10 Clear   73 57     57%   73 30.24        
Feb 23 17:35 SSW 6 10 Clear   73 57     57%   73 30.24        
Feb 23 17:15 SSW 5 10 Clear   75 57     54%   75 30.24        
Feb 23 15:55 SSW 7 10 Clear   75 55     50%   75 30.25        
Feb 23 15:35 Calm 10 Clear   75 55     50%   75 30.25        
Feb 23 15:15 W 6 10 Clear   77 55     47%   77 30.26        
Feb 23 14:55 SW 9 10 Clear   77 55     47%   77 30.27        
Feb 23 14:35 SW 6 10 Clear   73 59     61%   73 30.28        
Feb 23 14:15 S 9 10 Clear   73 61     65%   73 30.28        
Feb 23 13:55 W 6 9 Clear   73 59     61%   73 30.3        
Feb 23 13:35 W 8 10 Clear   73 57     57%   73 30.31        
Feb 23 13:15 SSW 12 10 Clear   75 57     54%   75 30.32        
Feb 23 12:55 SW 10 10 Clear   73 59     61%   73 30.34        
Feb 23 12:35 SW 8 10 Clear   72 59     65%   71 30.35        
Feb 23 12:15 SW 6 10 Clear   72 61     69%   72 30.36        
Feb 23 11:55 WSW 12 10 Clear   72 61     69%   72 30.37        
Feb 23 11:35 WSW 7 10 Clear   72 59     65%   71 30.37        
Feb 23 11:15 W 10 10 Clear   72 61     69%   72 30.37        
Feb 23 10:55 SW 7 10 Clear   70 61     73%     30.36        
Feb 23 10:35 SW 13 10 Clear   68 61     78%     30.36        
Feb 23 10:15 Calm 10 Clear   68 63     83%     30.36        
Feb 23 09:55 Calm 10 Clear   68 63     83%     30.35        
Feb 23 09:35 SSE 5 10 Clear   66 61     83%     30.35        
Feb 23 09:15 Calm 10 Clear   66 63     88%     30.35        
Feb 23 08:55 Calm 10 Clear   64 61     88%     30.35        
Feb 23 08:35 SE 3 10 Clear   64 61     88%     30.34        
Feb 23 08:15 SE 5 10 Clear   63 61     94%     30.34        
Feb 23 07:55 Calm 10 Clear   63 59     88%     30.33        
Feb 23 07:35 ESE 6 10 Clear   61 59     94%     30.33        
Feb 23 07:15 SE 7 10 Clear   61 59     94%     30.32        
Feb 23 06:55 SE 5 10 Clear   59 59     100%     30.32        
Feb 23 06:35 SE 6 10 Clear   59 59     100%     30.32        
Feb 23 06:15 SE 7 10 Clear   59 59     100%     30.32        
Feb 23 05:55 SE 7 10 Clear   59 59     100%     30.32        
Feb 23 05:35 SE 6 10 Clear   57 57     100%     30.32        
Feb 23 05:15 SE 7 10 Clear   57 57     100%     30.32        
Feb 23 04:55 SE 8 10 Clear   57 57     100%     30.32        
Feb 23 04:35 SE 8 10 Clear   57 57     100%     30.32        
Feb 23 04:15 SE 7 10 Clear   57 57     100%     30.32        
Feb 23 03:55 SE 7 10 Clear   57 57     100%     30.33        
Feb 23 03:35 SE 8 10 Clear   57 57     100%     30.34        
Feb 23 03:15 SE 6 10 Clear   57 57     100%     30.34        
Feb 23 02:55 SE 6 10 Clear   57 57     100%     30.34        
Feb 23 02:35 Calm 3 Clear   55 55     100%     30.34        
Feb 23 02:15 SE 5 10 Clear   57 57     100%     30.34        
Feb 23 01:55 Calm 10 Clear   57 57     100%     30.34        
Feb 23 01:35 Calm 10 Clear   57 57     100%     30.34        
Feb 23 01:15 SE 6 10 Clear   57 57     100%     30.34        
Feb 23 00:55 SE 5 10 Clear   57 57     100%     30.35        
Feb 23 00:35 Calm 2 Clear   57 57     100%     30.35        
Feb 23 00:15 Calm 1 Clear   57 57     100%     30.36        
Feb 22 23:55 Calm 0.5 Clear   57 57     100%     30.35        
Feb 22 23:35 Calm 0.5 Clear   57 57     100%     30.36        
Feb 22 23:15 Calm 8 Clear   59 59     100%     30.37        
Feb 22 22:55 Calm 2.5 Clear   59 59     100%     30.37        
Feb 22 22:35 Calm 10 Clear   59 59     100%     30.37        
Feb 22 22:15 Calm 10 Clear   59 59     100%     30.37        
Feb 22 21:55 Calm 10 Clear   61 61     100%     30.36        
Feb 22 21:35 Calm 10 Clear   63 63     100%     30.36        
Feb 22 21:15 Calm 10 Clear   63 63     100%     30.35        
Feb 22 20:55 Calm 10 Clear   63 63     100%     30.36        
Feb 22 20:35 Calm 10 Clear   63 63     100%     30.35